Simultaneous Nadir Overpasses (SNOs) Predictions

Prediction of SNOs between AQUA and NOAA-19 Satellite Orbit:

Table of predicted SNOs for the next 14.0 days since TLE Epoch: 10/4/2013
Index Date (AQUA) Time (AQUA) Lat,Lon (AQUA) SZA (AQUA ) Date (NOAA-19) Time (NOAA-19) Lat,Lon (NOAA-19) SZA (NOAA-19 ) Distance(km) Time Diff (sec)
1 10/04/2013 15:34:57 -66.37, 131.00 108.97 10/04/2013 15:34:00 -66.37, 131.02 108.98 0.95 57
2 10/04/2013 16:22:47 60.74, -56.66 65.85 10/04/2013 16:23:26 60.74, -56.62 65.87 2.26 39
3 10/06/2013 20:19:25 -67.02, 59.25 107.51 10/06/2013 20:18:26 -67.03, 59.22 107.51 1.33 59
4 10/06/2013 21:07:25 61.99,-128.62 67.84 10/06/2013 21:08:02 62.00,-128.64 67.86 1.26 37
5 10/09/2013 01:03:37 -66.78, -11.57 106.89 10/09/2013 01:02:35 -66.78, -11.53 106.90 1.78 62
6 10/09/2013 01:51:44 62.16, 160.19 68.84 10/09/2013 01:52:18 62.15, 160.19 68.86 0.14 34
7 10/11/2013 05:48:01 -67.24, -83.12 105.62 10/11/2013 05:46:57 -67.23, -83.11 105.63 0.63 64
8 10/11/2013 06:36:01 62.22, 89.07 69.74 10/11/2013 06:36:32 62.21, 89.10 69.75 1.84 31
9 10/13/2013 10:32:23 -67.59,-154.58 104.45 10/13/2013 10:31:17 -67.59,-154.58 104.47 0.08 66
10 10/13/2013 11:20:33 63.16, 17.27 71.44 10/13/2013 11:21:02 63.17, 17.25 71.45 0.88 29
11 10/15/2013 15:16:43 -67.85, 134.06 103.39 10/15/2013 15:15:35 -67.85, 134.06 103.40 0.17 68
12 10/15/2013 16:04:47 63.09, -53.74 72.19 10/15/2013 16:05:13 63.08, -53.71 72.20 1.54 26
13 10/17/2013 20:01:00 -67.96, 62.87 102.48 10/17/2013 19:59:50 -67.96, 62.88 102.49 0.39 70




NCC Satellite Simultaneous Nadir Overpasses (SNOs) Prediction Service
